Simultaneous Nadir Overpasses (SNOs) Predictions

Prediction of SNOs between TERRA and METOP-C Satellite Orbit:

Table of predicted SNOs for the next 14.0 days since TLE Epoch: 7/4/2020
Index Date (TERRA) Time (TERRA) Lat,Lon (TERRA) SZA (TERRA ) Date (METOP-C) Time (METOP-C) Lat,Lon (METOP-C) SZA (METOP-C ) Distance(km) Time Diff (sec)
1 07/04/2020 09:21:23 -81.31, -92.91 118.69 07/04/2020 09:21:01 -81.31, -92.96 118.71 0.76 22
2 07/04/2020 10:10:49 81.31, 74.84 61.33 07/04/2020 10:11:40 81.32, 74.93 61.37 1.58 51
3 07/07/2020 04:55:38 -81.31, -26.48 118.42 07/07/2020 04:55:23 -81.31, -26.45 118.43 0.63 15
4 07/07/2020 05:45:04 81.31, 141.25 61.60 07/07/2020 05:46:03 81.31, 141.06 61.61 3.15 59
5 07/10/2020 00:29:53 -81.30, 39.93 118.11 07/10/2020 00:29:45 -81.31, 40.03 118.10 1.93 8
6 07/10/2020 01:19:18 81.33,-152.00 61.97 07/10/2020 01:20:24 81.32,-152.04 61.99 1.23 66
7 07/12/2020 19:14:42 81.26, -62.08 62.14 07/12/2020 19:13:28 81.29, -62.01 62.14 4.12 74
8 07/12/2020 20:04:06 -81.32, 106.69 117.69 07/12/2020 20:04:06 -81.31, 106.51 117.71 3.22 0
9 07/12/2020 20:53:32 81.32, -85.64 62.33 07/12/2020 20:54:45 81.32, -85.55 62.37 1.62 73
10 07/15/2020 14:48:54 81.31, 5.38 62.72 07/15/2020 14:47:48 81.31, 5.26 62.67 2.22 66



Historial Predications of SNOs between TERRA and METOP-C
